User: anonymous   Login
Location: Kott?ru
(16.6209°N, 80.6208°E)
Time: 21:31:33
(UTC+00:00)
Language:

Cosmos 1238 Rocket - Orbit

View from above orbital plane
View from above orbital plane
View from above satellite
View from above satellite

Ground track
Ground track

The orbit data is extracted from the following two-line orbital elements,

1 12139U 81003B   21331.70434132  .00004924  00000-0  22977-3 0  9991
2 12139  82.9509 229.5256 0452402 333.9748  23.9312 14.59544665 83444
Epoch (UTC): 27 November 2021 16:54:15
Eccentricity: 0.0452402
inclination: 82.9509°
perigee height: 374 km
apogee height: 1014 km
right ascension of ascending node: 229.5256°
argument of perigee: 333.9748°
revolutions per day: 14.59544665
mean anomaly at epoch: 23.9312°
orbit number at epoch: 8344

The dashed part of the orbit path shows where the satellite is in the earth's shadow,  

DLR